Wind_Speed
5 6 6 6 6 6 5 5 5 4 3 2 2 2 3 5 5 5 5 6 7 8 9 10 11 11 11 11 11 11 11 12 12 12 12 11 12 13 15 16 16 16 16
6 6 6 6 6 6 6 6 5 5 4 3 3 2 2 3 3 4 5 6 7 8 9 10 11 12 12 12 12 12 12 12 12 12 12 12 13 13 14 16 17 17 17
6 6 6 6 6 6 6 6 6 5 5 5 4 4 4 4 4 5 6 6 6 7 8 8 10 12 12 12 13 12 13 13 13 12 13 13 14 14 15 16 17 17 18
6 6 6 6 7 6 6 6 6 5 5 5 5 5 5 4 4 5 6 6 7 7 7 8 9 11 12 12 13 13 13 13 13 13 13 14 14 15 16 17 17 17 18
6 6 6 7 7 6 5 5 6 6 6 6 7 7 6 6 6 6 7 7 7 8 7 8 8 9 10 11 12 13 13 13 13 13 13 14 15 16 17 17 18 18 19
7 7 7 7 6 6 6 6 6 6 6 6 8 8 8 8 8 8 9 8 8 8 8 8 9 10 10 11 11 13 13 14 14 15 15 15 16 16 16 17 18 18 19
8 8 8 8 7 7 7 7 7 7 7 7 8 9 9 9 10 10 9 9 8 8 8 8 9 10 10 11 12 12 13 14 14 14 15 15 15 16 17 17 18 18 19
8 8 8 9 9 9 9 9 9 8 8 9 10 10 10 11 11 11 10 10 9 8 8 9 10 10 11 12 12 12 13 14 14 14 15 16 16 16 16 17 18 19 19
9 9 9 10 10 10 10 10 10 9 10 11 11 12 12 12 11 11 11 10 10 9 10 10 11 11 11 12 12 13 14 15 16 16 16 17 18 18 18 17 17 18 19
10 10 10 11 11 11 11 11 11 11 12 12 12 12 13 13 14 13 12 12 12 12 13 12 12 13 13 14 14 14 16 16 17 17 17 18 18 20 19 20 20 20 20
11 11 12 12 12 13 13 13 12 13 13 13 13 14 14 14 14 15 15 14 13 13 13 14 14 15 15 15 15 16 17 18 17 18 18 19 19 20 20 21 21 21 21
12 12 13 13 13 14 14 14 14 14 14 14 14 15 16 16 16 16 16 16 16 16 15 15 16 16 16 17 17 17 18 18 19 19 19 19 20 20 21 22 22 22 23
13 13 14 14 14 15 15 15 15 15 15 15 15 16 16 17 17 17 17 17 17 18 17 17 17 18 18 18 18 18 18 19 20 20 20 19 20 21 22 22 22 23 23
14 14 15 15 15 16 16 17 17 17 17 17 16 17 18 18 18 18 18 18 18 19 18 18 19 19 20 19 19 19 19 19 20 20 21 21 21 21 22 22 23 23 23
15 16 16 16 17 17 18 19 19 19 18 18 18 19 19 19 20 20 20 20 20 20 19 19 20 20 21 21 21 21 21 21 21 21 22 22 22 23 23 23 24 24 24
18 18 18 18 18 19 20 21 21 20 19 20 20 20 20 20 21 21 21 21 21 20 20 20 21 22 22 23 22 23 23 23 23 23 23 23 23 24 24 25 25 25 26
18 18 19 19 20 20 21 21 21 21 21 21 21 21 22 22 22 22 22 22 21 20 21 21 22 22 23 24 24 24 24 25 25 25 25 25 25 25 26 26 26 27 27
20 20 21 21 21 21 21 21 21 21 21 22 22 22 22 22 22 22 22 22 22 22 22 22 23 23 24 25 26 26 26 26 26 26 27 26 26 26 26 26 27 27 27
21 22 22 22 22 22 22 22 22 22 23 23 23 22 22 22 22 23 23 23 23 24 24 24 24 25 25 26 26 26 26 27 27 26 26 26 26 26 26 26 27 27 26
23 23 23 24 24 23 23 23 24 24 25 25 24 23 23 23 23 24 24 24 24 24 24 25 25 25 26 26 26 26 26 26 26 27 26 26 27 27 27 27 27 26 26
24 24 24 24 25 25 24 25 25 25 25 25 25 24 24 24 24 24 24 24 25 25 25 25 25 25 26 26 26 26 26 26 26 26 26 26 26 26 26 27 26 26 26
25 25 25 25 25 26 25 25 25 25 25 25 25 24 24 25 25 25 25 25 25 25 26 26 25 26 26 27 27 27 27 28 27 26 26 25 26 26 26 27 27 27 27
25 25 25 25 25 25 25 24 25 25 25 24 24 24 24 25 26 26 26 26 26 26 26 26 26 26 27 27 27 27 27 27 27 26 26 25 25 26 26 26 26 27 27
26 25 25 25 25 25 25 24 25 25 24 24 24 24 24 24 26 26 26 26 27 27 27 27 27 27 27 27 27 26 27 27 27 27 26 25 25 25 25 26 27 27 28
26 26 26 26 26 25 25 25 25 25 24 24 24 24 25 25 25 26 26 26 26 27 28 28 28 28 28 27 27 27 27 27 27 27 27 26 26 26 26 26 27 27 28
27 27 27 27 27 26 26 26 27 26 25 25 25 26 26 26 27 27 26 26 27 28 29 29 29 29 29 28 28 28 28 27 26 26 27 27 27 27 27 26 27 27 28
Wind_Direction
52 47 44 44 43 36 30 15 0 355 357 335 311 305 267 268 268 272 270 262 247 241 249 253 254 256 254 254 251 253 253 253 255 255 254 250 246 243 244 246 246 246 245
51 48 42 34 33 29 21 16 11 10 10 14 357 343 340 299 287 279 277 274 257 252 258 257 256 255 252 253 253 255 253 251 252 252 252 251 251 249 247 247 246 246 246
42 40 36 31 24 20 14 11 10 9 8 8 1 349 331 329 309 287 286 284 273 265 265 264 260 253 250 251 251 250 251 251 252 253 256 255 253 251 249 248 247 247 247
33 33 29 21 19 18 17 15 10 4 352 349 349 337 332 336 325 312 302 291 280 276 275 269 266 263 253 251 251 253 253 253 255 258 259 257 255 255 253 250 247 247 247
19 18 19 15 12 15 14 7 5 357 346 339 335 331 329 326 317 310 306 299 287 281 277 272 272 269 265 262 260 260 255 254 255 258 260 260 257 256 255 252 248 249 250
17 16 10 10 13 9 1 354 344 340 337 336 334 328 323 322 317 310 305 297 288 283 279 275 272 267 268 270 268 266 262 258 258 256 257 258 257 255 255 252 250 251 251
13 9 6 7 6 359 350 342 336 333 330 327 327 324 321 317 315 310 306 300 290 284 279 272 271 270 268 269 269 268 263 260 261 260 259 259 259 257 253 253 252 252 253
6 8 6 360 353 345 341 338 334 327 322 317 316 316 315 313 309 307 306 298 287 282 279 279 277 273 267 266 266 263 261 259 259 262 262 261 260 258 256 257 255 253 254
1 1 357 350 345 341 337 333 330 325 321 315 313 311 311 309 305 304 303 296 289 284 279 275 274 272 269 269 267 261 263 260 260 262 263 264 262 259 258 257 257 256 255
352 349 345 341 339 336 334 332 328 322 319 316 312 310 310 307 304 302 298 292 287 282 278 276 272 268 267 267 267 262 262 264 263 261 261 262 264 261 257 256 255 256 255
337 337 337 337 334 331 329 327 324 321 317 314 312 310 306 302 300 298 297 292 287 282 278 276 273 271 272 272 274 270 266 265 265 263 261 262 263 261 259 258 257 257 257
328 329 331 331 330 328 324 321 319 317 314 311 310 308 305 299 298 297 295 290 286 283 279 276 275 274 276 275 274 274 273 269 269 268 266 265 264 265 265 261 259 259 259
323 323 324 325 325 323 319 317 314 312 310 308 307 306 305 301 297 296 295 291 287 285 282 276 272 272 273 274 274 274 276 275 273 269 269 268 268 266 265 265 265 265 265
320 319 318 318 317 316 315 313 311 309 307 305 304 304 303 302 299 298 294 291 289 286 284 280 273 271 271 273 276 276 274 275 272 270 270 270 269 268 267 267 267 267 267
316 315 313 312 312 312 312 310 307 305 304 302 300 300 300 300 299 298 295 291 288 286 283 281 277 274 273 273 274 277 275 273 271 272 273 270 268 268 268 267 267 266 267
317 315 311 311 311 310 309 308 305 302 301 300 300 299 299 298 296 295 293 290 287 284 282 280 279 276 274 273 273 274 275 275 274 273 273 269 268 268 267 267 266 265 265
315 316 314 313 312 309 308 308 306 304 302 300 300 299 297 297 295 293 292 290 288 286 283 281 280 279 277 275 274 274 275 274 274 274 272 270 267 266 266 266 265 265 264
313 312 313 312 311 310 308 307 305 304 302 303 303 300 297 295 292 291 291 290 288 287 286 282 281 280 279 277 275 274 274 274 274 274 271 269 268 268 268 268 267 266 266
311 312 311 310 309 308 308 307 306 305 305 304 303 301 297 294 292 292 291 289 287 286 286 283 283 283 282 279 277 275 273 274 274 273 270 268 268 269 268 268 268 267 267
311 311 310 309 308 307 305 304 304 303 304 304 303 301 297 295 294 293 290 288 288 286 285 284 284 284 282 281 277 277 276 274 274 273 272 270 269 268 268 268 268 266 266
310 310 309 309 309 307 304 303 301 302 302 302 301 298 296 294 294 293 291 289 288 287 285 285 286 285 283 284 283 281 278 277 276 275 273 272 271 269 268 268 268 267 266
309 309 310 310 309 309 305 304 303 302 301 299 297 297 295 293 293 293 292 290 289 288 287 286 286 284 283 284 284 282 280 279 278 276 274 272 272 271 270 268 267 265 264
309 309 310 309 309 309 307 304 304 303 302 300 299 297 296 294 293 292 291 289 289 288 288 286 285 284 283 284 283 283 282 280 278 276 275 273 273 272 269 267 265 265 264
312 311 310 308 308 308 306 305 303 303 303 302 301 300 300 298 295 293 291 288 288 288 288 287 284 282 283 284 284 283 283 282 279 277 276 274 273 272 272 269 266 266 265
312 312 311 310 309 308 307 307 306 304 303 302 302 301 301 299 298 295 292 290 289 289 290 289 285 282 281 282 282 281 281 281 280 278 276 274 272 272 272 271 269 268 267
311 311 310 309 308 306 307 307 308 306 304 303 302 301 300 299 299 297 295 292 291 289 288 288 286 284 283 283 282 280 279 279 278 277 275 274 274 274 273 271 270 269 268
Height
5868 5867 5866 5865 5864 5863 5863 5862 5860 5859 5858 5857 5856 5856 5855 5855 5855 5855 5854 5854 5854 5854 5854 5854 5854 5854 5854 5854 5854 5854 5854 5854 5854 5854 5853 5853 5853 5854 5855 5857 5858 5859 5860
5868 5867 5866 5865 5864 5864 5863 5862 5860 5859 5858 5857 5856 5855 5854 5854 5854 5854 5853 5852 5852 5852 5851 5851 5851 5851 5851 5851 5851 5851 5851 5851 5851 5851 5851 5851 5851 5852 5852 5853 5855 5856 5857
5869 5868 5867 5866 5865 5864 5863 5862 5861 5859 5858 5857 5856 5855 5854 5853 5853 5852 5851 5850 5849 5849 5849 5848 5848 5848 5848 5848 5848 5848 5848 5848 5848 5848 5848 5848 5848 5848 5849 5850 5851 5852 5853
5869 5868 5867 5866 5865 5863 5862 5861 5860 5859 5858 5857 5856 5855 5853 5852 5851 5850 5849 5848 5847 5847 5846 5846 5846 5845 5845 5845 5845 5844 5844 5845 5845 5845 5845 5845 5845 5845 5845 5846 5847 5848 5849
5869 5868 5867 5866 5864 5863 5862 5861 5860 5859 5857 5856 5855 5853 5852 5850 5850 5848 5847 5846 5845 5844 5843 5843 5843 5843 5842 5842 5842 5841 5841 5841 5841 5841 5841 5841 5841 5841 5841 5841 5843 5844 5845
5869 5868 5866 5865 5864 5863 5861 5860 5859 5858 5857 5855 5854 5852 5850 5849 5848 5847 5845 5844 5842 5841 5841 5840 5840 5840 5839 5839 5838 5838 5837 5838 5838 5838 5837 5837 5837 5837 5837 5838 5839 5839 5840
5869 5867 5865 5864 5863 5862 5860 5859 5858 5857 5856 5854 5853 5851 5849 5848 5846 5845 5843 5842 5840 5839 5838 5838 5837 5837 5836 5835 5834 5834 5833 5834 5834 5834 5834 5834 5834 5834 5834 5834 5834 5835 5836
5868 5866 5865 5863 5862 5861 5859 5858 5856 5855 5853 5852 5851 5849 5847 5846 5844 5843 5841 5840 5838 5837 5836 5836 5835 5834 5833 5832 5831 5831 5830 5830 5830 5830 5830 5830 5830 5830 5830 5830 5830 5830 5831
5867 5866 5864 5862 5861 5859 5857 5856 5854 5853 5851 5850 5848 5847 5845 5843 5842 5841 5839 5837 5836 5834 5833 5832 5832 5831 5830 5829 5828 5828 5827 5826 5826 5826 5825 5825 5825 5825 5825 5825 5825 5825 5825
5866 5864 5863 5861 5859 5857 5855 5853 5852 5850 5849 5847 5845 5844 5842 5841 5839 5837 5836 5834 5833 5832 5830 5829 5828 5827 5826 5825 5824 5823 5823 5822 5821 5821 5821 5821 5820 5820 5820 5820 5820 5820 5820
5864 5863 5861 5859 5857 5855 5853 5851 5849 5847 5845 5844 5842 5840 5838 5837 5836 5834 5832 5831 5829 5828 5827 5825 5824 5823 5822 5821 5820 5819 5818 5818 5817 5816 5816 5815 5815 5814 5814 5814 5814 5814 5814
5862 5860 5858 5856 5854 5852 5850 5848 5846 5844 5842 5840 5838 5836 5835 5833 5831 5830 5828 5827 5825 5824 5823 5822 5820 5819 5817 5816 5815 5814 5813 5812 5811 5811 5810 5810 5809 5809 5808 5809 5808 5808 5808
5860 5858 5856 5853 5851 5849 5846 5844 5842 5840 5838 5836 5834 5832 5830 5828 5827 5825 5823 5822 5820 5819 5817 5816 5815 5814 5813 5811 5810 5809 5808 5807 5806 5805 5804 5804 5803 5803 5803 5802 5802 5802 5801
5857 5855 5852 5850 5848 5845 5843 5840 5838 5835 5833 5831 5829 5827 5825 5823 5822 5820 5818 5816 5815 5813 5812 5810 5809 5808 5807 5806 5805 5803 5802 5801 5800 5799 5798 5797 5797 5797 5796 5796 5796 5795 5795
5854 5851 5849 5846 5844 5841 5838 5836 5833 5831 5829 5826 5824 5822 5820 5818 5816 5814 5812 5810 5809 5808 5806 5805 5803 5802 5801 5800 5799 5797 5796 5795 5793 5792 5791 5790 5790 5790 5790 5789 5789 5788 5788
5850 5848 5845 5842 5839 5837 5834 5831 5828 5826 5823 5821 5819 5817 5814 5812 5810 5808 5806 5804 5803 5802 5800 5799 5797 5796 5795 5793 5792 5791 5789 5788 5787 5785 5784 5784 5783 5783 5783 5782 5782 5781 5781
5846 5843 5841 5838 5835 5832 5829 5826 5824 5820 5818 5815 5813 5811 5808 5806 5804 5802 5800 5798 5796 5795 5794 5792 5790 5789 5788 5786 5785 5784 5782 5781 5780 5778 5777 5776 5776 5775 5775 5775 5774 5774 5774
5841 5839 5836 5833 5830 5827 5824 5821 5818 5815 5812 5810 5807 5804 5802 5800 5798 5795 5793 5791 5790 5788 5787 5786 5784 5782 5781 5779 5778 5777 5775 5773 5772 5771 5769 5769 5768 5768 5767 5767 5766 5766 5766
5836 5834 5831 5828 5824 5821 5818 5815 5812 5809 5806 5804 5801 5798 5796 5793 5791 5789 5787 5785 5783 5781 5780 5779 5777 5775 5773 5771 5770 5769 5767 5766 5764 5763 5762 5761 5761 5760 5759 5759 5758 5758 5758
5831 5828 5825 5822 5819 5815 5812 5809 5806 5803 5800 5798 5795 5792 5789 5787 5785 5782 5780 5778 5776 5774 5773 5771 5769 5767 5765 5763 5762 5760 5759 5758 5757 5756 5755 5754 5753 5752 5751 5751 5750 5750 5750
5826 5822 5819 5816 5812 5809 5806 5802 5798 5795 5794 5791 5788 5785 5783 5780 5778 5775 5773 5771 5769 5767 5765 5763 5761 5759 5757 5755 5754 5753 5751 5750 5749 5748 5747 5746 5745 5744 5744 5743 5742 5742 5742
5820 5816 5813 5809 5806 5802 5799 5796 5793 5790 5787 5784 5782 5779 5776 5774 5771 5769 5766 5764 5762 5760 5758 5756 5754 5752 5750 5748 5747 5745 5744 5742 5741 5740 5738 5738 5737 5736 5735 5735 5734 5734 5733
5814 5810 5807 5803 5800 5796 5793 5789 5786 5783 5781 5777 5775 5772 5769 5766 5764 5761 5759 5756 5754 5752 5750 5748 5746 5744 5742 5740 5739 5737 5735 5734 5733 5732 5730 5729 5728 5728 5727 5726 5726 5725 5725
5808 5804 5801 5797 5794 5790 5787 5783 5780 5777 5774 5771 5768 5765 5762 5759 5757 5754 5751 5749 5747 5744 5742 5740 5738 5736 5734 5732 5731 5729 5727 5726 5725 5723 5722 5722 5720 5720 5719 5718 5717 5717 5717
5802 5798 5795 5791 5788 5784 5780 5777 5773 5770 5767 5764 5761 5758 5755 5752 5749 5746 5744 5742 5739 5737 5734 5732 5730 5728 5726 5724 5722 5721 5719 5718 5717 5715 5714 5713 5712 5711 5710 5710 5709 5708 5708
5796 5792 5788 5785 5781 5778 5774 5771 5767 5764 5760 5757 5754 5751 5748 5745 5742 5739 5736 5734 5732 5729 5726 5724 5721 5719 5717 5715 5713 5712 5711 5709 5708 5707 5705 5704 5703 5702 5702 5701 5700 5700 5699